Fresno, CA

11:36 AM PST on November 12, 2019 (GMT -0800)
Fresno Yosemite International

Weather History for KFAT - September, 2019

Change the Weather History Date:

Tuesday, September 24, 2019

  Actual Average Record
Temperature  
Mean Temperature 79 °F 74 °F  
Max Temperature 93 °F 89 °F 102 °F (1899)
Min Temperature 64 °F 60 °F 46 °F (1945)
Degree Days  
Heating Degree Days 0    
Month to date heating degree days 0  
Since 1 July heating degree days 0  
Cooling Degree Days 14    
Month to date cooling degree days 331  
Year to date cooling degree days 2272  
Growing Degree Days 28 (Base 50)    
Moisture  
Dew Point 53 °F    
Average Humidity 45    
Maximum Humidity 67    
Minimum Humidity 23    
Precipitation  
Precipitation 0.00 in 0.01 in 0.76 in (1904)
Month to date precipitation 0.00 0.11  
Year to date precipitation 9.52 7.97  
Snow  
Snow 0.00 in - - ()
Month to date snowfall 0.0  
Since 1 July snowfall 0.0  
Since 1 September snowfall 0.0  
Snow Depth 0.00 in    
Sea Level Pressure  
Sea Level Pressure 29.94 in    
Wind  
Wind Speed 3 mph (South)    
Max Wind Speed 13 mph    
Max Gust Speed 16 mph    
Visibility 10 miles    
Events      
T = Trace of Precipitation, MM = Missing Value Source: NWS Daily Summary

Daily Weather History Graph

Daily Weather History Graph

Search for Another Location

Airport or City:

Astronomy

Sep. 24, 2019 Rise Set
Actual Time 6:48 AM PDT 6:52 PM PDT
Civil Twilight 6:22 AM PDT 7:18 PM PDT
Nautical Twilight 5:52 AM PDT 7:48 PM PDT
Astronomical Twilight 5:21 AM PDT 8:19 PM PDT
Moon 1:48 AM PDT (9/24) 4:34 PM PDT (9/24)
Length of Visible Light 12h 56m
Length of Day
12h 04m
Waning Crescent, 22% of the Moon is Illuminated
Sep 24
Waning Crescent
Sep 28
New
Oct 5
First Quarter
Oct 13
Full
Oct 21
Last Quarter

Hourly Weather History & Observations

Time (PDT) Temp. Heat Index Dew Point Humidity Pressure Visibility Wind Dir Wind Speed Gust Speed Precip Events Conditions
12:53 AM 71.1 °F - 53.1 °F 53% 29.95 in 10.0 mi West 5.8 mph - N/A   Clear
1:53 AM 69.1 °F - 53.1 °F 57% 29.95 in 10.0 mi Calm Calm - N/A   Partly Cloudy
2:53 AM 69.1 °F - 53.1 °F 57% 29.96 in 10.0 mi Calm Calm - N/A   Clear
3:53 AM 66.9 °F - 54.0 °F 63% 29.96 in 10.0 mi Calm Calm - N/A   Clear
4:53 AM 66.0 °F - 54.0 °F 65% 29.96 in 10.0 mi Calm Calm - N/A   Clear
5:53 AM 64.9 °F - 53.1 °F 65% 29.98 in 10.0 mi Calm Calm - N/A   Clear
6:53 AM 64.0 °F - 52.0 °F 65% 30.00 in 10.0 mi Calm Calm - N/A   Partly Cloudy
7:53 AM 66.9 °F - 52.0 °F 59% 30.01 in 10.0 mi SSE 3.5 mph - N/A   Clear
8:53 AM 70.0 °F - 53.1 °F 55% 30.01 in 10.0 mi ESE 9.2 mph - N/A   Clear
9:53 AM 75.9 °F - 53.1 °F 45% 30.01 in 7.0 mi ESE 6.9 mph - N/A   Clear
10:10 AM 78.1 °F - 53.1 °F 42% 30.02 in 2.5 mi SE 10.4 mph - N/A   Haze
10:24 AM 78.1 °F - 54.0 °F 43% 30.02 in 7.0 mi SE 9.2 mph - N/A   Clear
10:53 AM 78.1 °F - 54.0 °F 43% 30.01 in 10.0 mi ESE 6.9 mph - N/A   Clear
11:53 AM 81.0 °F 80.5 °F 54.0 °F 39% 29.99 in 10.0 mi South 8.1 mph - N/A   Clear
12:53 PM 84.9 °F 83.2 °F 53.1 °F 33% 29.96 in 10.0 mi SSW 8.1 mph - N/A   Clear
1:53 PM 87.1 °F - 51.1 °F 29% 29.93 in 10.0 mi South 8.1 mph - N/A   Clear
2:53 PM 90.0 °F - 50.0 °F 25% 29.90 in 10.0 mi SSW 4.6 mph - N/A   Clear
3:53 PM 91.0 °F - 50.0 °F 24% 29.88 in 10.0 mi WSW 5.8 mph - N/A   Clear
4:53 PM 93.0 °F - 50.0 °F 23% 29.86 in 10.0 mi SW 4.6 mph - N/A   Clear
5:53 PM 91.9 °F - 50.0 °F 24% 29.85 in 10.0 mi NW 6.9 mph - N/A   Clear
6:53 PM 89.1 °F - 51.1 °F 27% 29.85 in 10.0 mi NNW 4.6 mph - N/A   Clear
7:53 PM 86.0 °F - 52.0 °F 31% 29.85 in 10.0 mi Calm Calm - N/A   Clear
8:53 PM 84.0 °F 82.5 °F 53.1 °F 34% 29.86 in 10.0 mi Calm Calm - N/A   Clear
9:53 PM 81.0 °F 80.4 °F 53.1 °F 38% 29.86 in 9.0 mi Calm Calm - N/A   Clear
10:53 PM 78.1 °F - 55.0 °F 45% 29.86 in 10.0 mi East 3.5 mph - N/A   Clear
11:53 PM 75.0 °F - 55.0 °F 50% 29.85 in 10.0 mi Calm Calm - N/A   Scattered Clouds